DELTA 1 DEB, 10746

Orbit data source: Space-Track

DELTA 1 DEB, 10746 is space debris in SSO originally from a launch on Thu, 29 Jul 1976 UTC launched from the Air Force Western Test Range (AFWTR). Debris objects in space refer to the collection of defunct objects orbiting the Earth. Examples of debris include non-operational satellites, rocket bodies, and fragments generated from explosions, collisions, or faulty payload assembly.

Loading next visibility...
Identifier
10746, 1976-077AT
Orbit
SSO
Country
Flag of USUS
Related business
Manufacturer
Unknown
Mission
Spacecraft
Bus & Motor
Unknown
Mass
Unknown
Launch date (UTC)
1976-07-29 (50 years ago)
Launch vehicle
Unknown
Launch site
Air Force Western Test Range (AFWTR)
Object type
Payload
Rocket body
Debris
Shape & HBR
Unknown shape, 1.1 m
Radar Cross Section
Small (<0.1 m²)

Expand to show TLE details & history
Last TLE update: 6 hours ago

TLE from 6 hours ago
0 DELTA 1 DEB
1 10746U 76077AT  26100.55068949  .00001636  00000-0  33199-2 0  9993
2 10746 101.9060 315.8098 0275261  95.6383 296.3338 13.22365579344185
Epoch: 2026-04-10T13:12Z
TLE epoch observation values (Epoch: 2026-04-10T13:12:59.571Z)
Latitude
28.4647°
Longitude
-87.75109°
Altitude
1,091.417 km
Speed
7.351 km/s
True Right ascension
20h 37m 07s
True Declination
28° 19' 38"
Sunlit
Object was in daylight at epoch
Visualization orbit readout
Latitude
Unknown
Longitude
Unknown
Altitude
Unknown
Speed
Unknown
Apparent Right ascension
Unknown
Apparent Declination
Unknown
Sunlit
N/A
Visualization observer readout
Local Sidereal Time
01:21:23
Azimuth
Unknown
Elevation
Unknown
Doppler factor
Unknown
Orbital elements
Apogee altitude
1,381.015 km
Perigee altitude
965.3 km
Semi-major axis
7,551.294 km
Eccentricity
0.02753
Inclination
101.906°
RAAN
315.8098°
Arg. of periapsis
95.6383°
True anomaly
293.46429°
Mean anomaly
296.3338°
Eccentric anomaly
294.90331°
Mean motion
3.30759 °/min
Orbital period
108.84 mins
BSTAR
0.0033199
Loading maneuver chart data...
Computing Atmospheric mass density...
Loading historical data...
Loading historical data...
Loading historical data...
Loading historical data...
Loading historical data...
Loading historical data...
Loading historical data...

Documentation

Showing up to 5 results
|